Tracking 28790 objects as of 19-Apr-2024
HD Live streaming from Space Station
objects crossing your sky now

FENGYUN 1C DEB

Track FENGYUN 1C DEB now!
10-day predictions


NORAD ID: 35189
Int'l Code: 1999-025DNV
Perigee: 827.8 km
Apogee: 917.7 km
Inclination: 98.9 °
Period: 102.3 minutes
Semi major axis: 7243 km
RCS: 0.0105 m2 (small)
Launch date: May 10, 1999
Source: People's Republic of China (PRC)
Launch site: Taiyaun Space Center, China (TSC)

Note: This is SATELLITE DEBRIS
Your satellite tracking list
Your tracking list is empty




NASA's NSSDC Master Catalog

Two Line Element Set (TLE):
1 35189U 99025DNV 24107.95928568  .00004740  00000-0  27533-2 0  9994
2 35189  98.8956 157.8676 0062051  28.8126 331.6447 14.08189159550907
Source of the keplerian elements: AFSPC